When you browse on this site, cookies collect data to enhance your experience and personalize the content and advertising you see.
Visit our Privacy Policy to learn more. By continuing to use the site, you agree to this use of cookies and data.
  • In Spain
  • List of Countries
  • For 7 days
  • Water Temperature
  • Weather Map
  • Weather Widgets
  • user-avatar
    Login

    Hourly Weather Seredina-Buda

    Today, 2 April, Thursday

    Time Temperature Precipitation Wind Pressure Humidity
    00:00 -2°C° 0 mm 4 mps 740 mmHg 65%
    01:00 -2°C° 0 mm 4 mps 740 mmHg 65%
    02:00 -2°C° 0 mm 3 mps 740 mmHg 66%
    03:00 -2°C° 0 mm 3 mps 740 mmHg 67%
    04:00 -2°C° 0 mm 3 mps 740 mmHg 69%
    05:00 -3°C° 0 mm 4 mps 740 mmHg 71%
    06:00 -2°C° 0 mm 4 mps 740 mmHg 68%
    07:00 -1°C° 0 mm 4 mps 740 mmHg 66%
    08:00 0°C° 0 mm 4 mps 740 mmHg 64%
    09:00 +1°C° 0 mm 5 mps 740 mmHg 61%
    10:00 +2°C° 0 mm 5 mps 740 mmHg 58%
    11:00 +4°C° 0 mm 6 mps 739 mmHg 55%
    12:00 +4°C° 0 mm 6 mps 739 mmHg 55%
    13:00 +4°C° 0 mm 6 mps 740 mmHg 55%
    14:00 +4°C° 0 mm 6 mps 740 mmHg 55%
    15:00 +4°C° 0 mm 6 mps 739 mmHg 55%
    16:00 +5°C° 0 mm 5 mps 739 mmHg 56%
    17:00 +5°C° 0 mm 5 mps 739 mmHg 57%
    18:00 +4°C° 0 mm 4 mps 739 mmHg 61%
    19:00 +3°C° 0 mm 3 mps 739 mmHg 66%
    20:00 +1°C° 0 mm 3 mps 740 mmHg 71%
    21:00 +1°C° 0 mm 3 mps 739 mmHg 71%
    22:00 +1°C° 0 mm 3 mps 739 mmHg 72%
    23:00 +1°C° 0 mm 3 mps 739 mmHg 73%

    Tomorrow, 3 April, Friday

    Time Temperature Precipitation Wind Pressure Humidity
    00:00 0°C° 0 mm 3 mps 739 mmHg 73%
    01:00 0°C° 0 mm 3 mps 740 mmHg 74%
    02:00 0°C° 0 mm 3 mps 740 mmHg 74%
    03:00 0°C° 0 mm 3 mps 739 mmHg 75%
    04:00 0°C° 0 mm 3 mps 739 mmHg 76%
    05:00 -2°C° 0 mm 4 mps 739 mmHg 77%
    06:00 0°C° 0 mm 4 mps 739 mmHg 70%
    07:00 +2°C° 0 mm 5 mps 739 mmHg 64%
    08:00 +3°C° 0 mm 6 mps 739 mmHg 57%
    09:00 +5°C° 0 mm 6 mps 739 mmHg 52%
    10:00 +6°C° 0 mm 7 mps 739 mmHg 47%
    11:00 +9°C° 0 mm 7 mps 739 mmHg 42%
    12:00 +9°C° 0 mm 8 mps 739 mmHg 40%
    13:00 +10°C° 0 mm 8 mps 738 mmHg 38%
    14:00 +11°C° 0 mm 8 mps 738 mmHg 36%
    15:00 +10°C° 0 mm 7 mps 738 mmHg 38%
    16:00 +10°C° 0 mm 6 mps 738 mmHg 40%
    17:00 +9°C° 0 mm 5 mps 738 mmHg 42%
    18:00 +8°C° 0 mm 5 mps 738 mmHg 46%
    19:00 +7°C° 0 mm 5 mps 739 mmHg 49%
    20:00 +6°C° 0 mm 5 mps 739 mmHg 53%
    21:00 +5°C° 0 mm 5 mps 739 mmHg 56%
    22:00 +5°C° 0 mm 4 mps 740 mmHg 59%
    23:00 +5°C° 0 mm 4 mps 740 mmHg 62%

    Day after tomorrow, 4 April, Saturday

    Time Temperature Precipitation Wind Pressure Humidity
    00:00 +4°C° 0 mm 3 mps 740 mmHg 66%
    01:00 +4°C° 0 mm 3 mps 741 mmHg 71%
    02:00 +3°C° 0 mm 3 mps 741 mmHg 75%
    03:00 +2°C° 0 mm 3 mps 742 mmHg 76%
    04:00 +2°C° 0 mm 3 mps 742 mmHg 76%
    05:00 +1°C° 0 mm 3 mps 743 mmHg 77%
    06:00 +2°C° 0 mm 3 mps 743 mmHg 73%
    07:00 +3°C° 0 mm 4 mps 744 mmHg 69%
    08:00 +3°C° 0 mm 5 mps 745 mmHg 65%
    09:00 +5°C° 0 mm 5 mps 745 mmHg 56%
    10:00 +5°C° 0 mm 5 mps 746 mmHg 47%
    11:00 +5°C° 0 mm 6 mps 746 mmHg 38%
    12:00 +5°C° 0 mm 6 mps 746 mmHg 37%
    13:00 +7°C° 0 mm 6 mps 747 mmHg 36%
    14:00 +7°C° 0 mm 5 mps 747 mmHg 35%
    15:00 +7°C° 0 mm 5 mps 747 mmHg 36%
    16:00 +6°C° 0 mm 5 mps 747 mmHg 37%
    17:00 +6°C° 0 mm 5 mps 748 mmHg 38%
    18:00 +5°C° 0 mm 4 mps 748 mmHg 43%
    19:00 +4°C° 0 mm 3 mps 748 mmHg 48%
    20:00 +4°C° 0 mm 2 mps 749 mmHg 53%
    21:00 +3°C° 0 mm 2 mps 749 mmHg 55%
    22:00 +3°C° 0 mm 2 mps 750 mmHg 58%
    23:00 +2°C° 0 mm 2 mps 750 mmHg 61%

    5 April, Sunday

    Time Temperature Precipitation Wind Pressure Humidity
    00:00 +1°C° 0 mm 3 mps 750 mmHg 63%
    01:00 +1°C° 0 mm 3 mps 750 mmHg 66%
    02:00 0°C° 0 mm 3 mps 750 mmHg 69%
    03:00 0°C° 0 mm 3 mps 751 mmHg 71%
    04:00 -1°C° 0 mm 3 mps 751 mmHg 74%
    05:00 -2°C° 0 mm 4 mps 751 mmHg 76%
    06:00 -1°C° 0 mm 5 mps 752 mmHg 70%
    07:00 -1°C° 0 mm 6 mps 752 mmHg 63%
    08:00 -1°C° 0 mm 7 mps 753 mmHg 57%
    09:00 0°C° 0 mm 7 mps 754 mmHg 49%
    10:00 +2°C° 0 mm 7 mps 754 mmHg 42%
    11:00 +2°C° 0 mm 8 mps 755 mmHg 34%
    12:00 +2°C° 0 mm 8 mps 755 mmHg 33%
    13:00 +3°C° 0 mm 7 mps 755 mmHg 31%
    14:00 +4°C° 0 mm 7 mps 756 mmHg 29%
    15:00 +4°C° 0 mm 7 mps 756 mmHg 31%
    16:00 +3°C° 0 mm 7 mps 756 mmHg 32%
    17:00 +3°C° 0 mm 6 mps 756 mmHg 33%
    18:00 +2°C° 0 mm 5 mps 757 mmHg 38%
    19:00 +1°C° 0 mm 4 mps 758 mmHg 43%
    20:00 +1°C° 0 mm 3 mps 758 mmHg 49%
    21:00 0°C° 0 mm 3 mps 759 mmHg 51%
    22:00 -1°C° 0 mm 2 mps 759 mmHg 54%
    23:00 -1°C° 0 mm 2 mps 759 mmHg 57%

    6 April, Monday

    Time Temperature Precipitation Wind Pressure Humidity
    00:00 -1°C° 0 mm 2 mps 760 mmHg 57%
    01:00 -1°C° 0 mm 2 mps 760 mmHg 56%
    02:00 -2°C° 0 mm 2 mps 760 mmHg 56%
    03:00 -2°C° 0 mm 2 mps 760 mmHg 56%
    04:00 -2°C° 0 mm 2 mps 760 mmHg 55%
    05:00 -2°C° 0 mm 2 mps 761 mmHg 54%
    06:00 0°C° 0 mm 3 mps 761 mmHg 50%
    07:00 +2°C° 0 mm 3 mps 761 mmHg 45%
    08:00 +3°C° 0 mm 4 mps 761 mmHg 41%
    09:00 +5°C° 0 mm 4 mps 761 mmHg 39%
    10:00 +6°C° 0 mm 4 mps 761 mmHg 37%
    11:00 +7°C° 0 mm 4 mps 761 mmHg 35%
    12:00 +8°C° 0 mm 4 mps 761 mmHg 36%
    13:00 +8°C° 0 mm 4 mps 761 mmHg 36%
    14:00 +10°C° 0 mm 4 mps 761 mmHg 36%
    15:00 +10°C° 0 mm 4 mps 761 mmHg 38%
    16:00 +8°C° 0 mm 4 mps 760 mmHg 39%
    17:00 +9°C° 0 mm 3 mps 760 mmHg 41%
    18:00 +8°C° 0 mm 3 mps 760 mmHg 45%
    19:00 +6°C° 0 mm 2 mps 760 mmHg 49%
    20:00 +5°C° 0 mm 2 mps 760 mmHg 53%
    21:00 +4°C° 0 mm 2 mps 760 mmHg 54%
    22:00 +4°C° 0 mm 2 mps 760 mmHg 55%
    23:00 +3°C° 0 mm 2 mps 760 mmHg 56%

    7 April, Tuesday

    Time Temperature Precipitation Wind Pressure Humidity
    00:00 +3°C° 0 mm 2 mps 760 mmHg 57%
    01:00 +3°C° 0 mm 2 mps 760 mmHg 58%
    02:00 +2°C° 0 mm 2 mps 760 mmHg 60%
    03:00 +2°C° 0 mm 2 mps 760 mmHg 61%
    04:00 +2°C° 0 mm 2 mps 760 mmHg 62%
    05:00 0°C° 0 mm 3 mps 760 mmHg 63%
    06:00 +2°C° 0 mm 3 mps 760 mmHg 59%
    07:00 +3°C° 0 mm 3 mps 760 mmHg 55%
    08:00 +5°C° 0 mm 3 mps 759 mmHg 50%
    09:00 +7°C° 0 mm 4 mps 759 mmHg 45%
    10:00 +10°C° 0 mm 4 mps 759 mmHg 40%
    11:00 +12°C° 0 mm 5 mps 759 mmHg 35%
    12:00 +13°C° 0 mm 5 mps 758 mmHg 33%
    13:00 +14°C° 0 mm 5 mps 758 mmHg 31%
    14:00 +15°C° 0 mm 6 mps 758 mmHg 29%
    15:00 +14°C° 0 mm 5 mps 757 mmHg 31%
    16:00 +14°C° 0 mm 5 mps 756 mmHg 34%
    17:00 +14°C° 0 mm 4 mps 756 mmHg 36%
    18:00 +12°C° 0 mm 4 mps 756 mmHg 41%
    19:00 +10°C° 0 mm 4 mps 756 mmHg 46%
    20:00 +9°C° 0 mm 3 mps 755 mmHg 51%
    21:00 +8°C° 0 mm 3 mps 755 mmHg 54%
    22:00 +8°C° 0 mm 3 mps 755 mmHg 57%
    23:00 +7°C° 0 mm 3 mps 755 mmHg 59%
    Show more